Weather History for San Jose, Costa Rica

Change the Weather History Date:

Monday, December 20, 2010

  Actual Average Record
Temperature  
Mean Temperature 70 °F -  
Max Temperature 76 °F 80 °F 86 °F (2006)
Min Temperature 64 °F 63 °F 63 °F (2012)
Cooling Degree Days 5    
Growing Degree Days 20 (Base 50)    
Moisture  
Dew Point 58 °F    
Average Humidity 67    
Maximum Humidity 94    
Minimum Humidity 40    
Precipitation  
Precipitation 0.00 in 0.02 in - ()
Sea Level Pressure  
Sea Level Pressure 30.00 in    
Wind  
Wind Speed 7 mph ()    
Max Wind Speed 16 mph    
Max Gust Speed -    
Visibility 6.8 miles    
Events      
Averages and records for this station are not official NWS values.
T = Trace of Precipitation, MM = Missing Value Source: Averaged Metar Reports

Daily Weather History Graph

Daily Weather History Graph

Search for Another Location

Airport:

Trip Planner

Search our weather history database for the weather conditions in past years. The results will help you decide how hot, cold, wet, or windy it might be!

Date:

Astronomy

Dec. 20, 2010 Rise Set
Actual Time 5:48 AM CST 5:20 PM CST
Civil Twilight 5:25 AM CST 5:43 PM CST
Nautical Twilight 4:59 AM CST 6:10 PM CST
Astronomical Twilight 4:32 AM CST 6:36 PM CST
Moon 4:55 PM CST (12/20) 5:03 AM CST (12/20)
Length of Visible Light 12h 18m
Length of Day
11h 32m
Full, 100% of the Moon is Illuminated
Dec 20
Full
Dec 21
Full
Dec 27
Last Quarter
Jan 4
New
Jan 12
First Quarter

Hourly Weather History & Observations

Time (CST) Temp. Dew Point Humidity Pressure Visibility Wind Dir Wind Speed Gust Speed Precip Events Conditions
12:00 AM 68.0 °F 62.6 °F 83% 30.02 in 6.2 mi ESE 5.8 mph - N/A   Mostly Cloudy
1:00 AM 66.2 °F 64.4 °F 94% 30.01 in 6.2 mi Calm Calm - N/A   Mostly Cloudy
2:00 AM 68.0 °F 62.6 °F 83% 29.97 in 6.2 mi ESE 3.5 mph - N/A   Mostly Cloudy
3:00 AM 68.0 °F 62.6 °F 83% 29.97 in 6.2 mi SE 3.5 mph - N/A   Mostly Cloudy
4:00 AM 66.2 °F 62.6 °F 88% 29.98 in 6.2 mi East 6.9 mph - N/A   Mostly Cloudy
5:00 AM 66.2 °F 60.8 °F 83% 29.98 in 6.2 mi ENE 5.8 mph - N/A   Scattered Clouds
6:00 AM 66.2 °F 60.8 °F 83% 30.01 in 6.2 mi ESE 3.5 mph - N/A   Mostly Cloudy
7:00 AM 68.0 °F 59.0 °F 73% 30.03 in 6.2 mi East 4.6 mph - N/A   Mostly Cloudy
8:00 AM 73.4 °F 59.0 °F 61% 30.05 in 6.2 mi ESE 8.1 mph - N/A   Scattered Clouds
9:00 AM 73 °F 61 °F 57% 29.91 in 9 mi East 13.8 mph - -   Scattered Clouds
9:00 AM 73.4 °F 60.8 °F 65% 30.06 in 6.2 mi East 13.8 mph - N/A   Scattered Clouds
10:00 AM 75.2 °F 60.8 °F 61% 30.06 in 6.2 mi ESE 12.7 mph - N/A   Scattered Clouds
11:00 AM 77.0 °F 59.0 °F 54% 30.04 in 6.2 mi ESE 13.8 mph - N/A   Scattered Clouds
12:00 PM 75 °F 61 °F 52% 29.86 in 9 mi ESE 13.8 mph - -   Mostly Cloudy
12:00 PM 75.2 °F 60.8 °F 61% 30.02 in 6.2 mi ESE 13.8 mph - N/A   Scattered Clouds
1:00 PM 75.2 °F 60.8 °F 61% 30.02 in 6.2 mi ESE 15.0 mph - N/A   Mostly Cloudy
2:00 PM 71.6 °F 59.0 °F 64% 29.98 in 6.2 mi SE 12.7 mph - N/A   Mostly Cloudy
3:00 PM 73 °F 54 °F 40% 29.84 in 12 mi SE 10.4 mph - -   Overcast
3:00 PM 73.4 °F 53.6 °F 50% 29.97 in 6.2 mi SE 10.4 mph - N/A   Mostly Cloudy
4:00 PM 69.8 °F 55.4 °F 60% 29.98 in 6.2 mi ESE 12.7 mph - N/A   Mostly Cloudy
5:00 PM 68.0 °F 53.6 °F 60% 30.00 in 6.2 mi SE 8.1 mph - N/A   Mostly Cloudy
6:00 PM 66 °F 55 °F 60% 29.89 in 12 mi SE 8.1 mph - -   Scattered Clouds
6:00 PM 66.2 °F 55.4 °F 68% 30.01 in 6.2 mi SE 8.1 mph - N/A   Scattered Clouds
7:00 PM 66.2 °F 55.4 °F 68% 30.02 in 6.2 mi ESE 10.4 mph - N/A   Partly Cloudy
8:00 PM 66.2 °F 55.4 °F 68% 30.04 in 6.2 mi SE 13.8 mph - N/A   Partly Cloudy
9:00 PM 66.2 °F 55.4 °F 68% 30.05 in 6.2 mi SE 16.1 mph - N/A   Unknown
10:00 PM 66.2 °F 51.8 °F 60% 30.06 in 6.2 mi SE 13.8 mph - N/A   Unknown
11:00 PM 66.2 °F 50.0 °F 56% 30.04 in 6.2 mi ESE 13.8 mph - N/A   Unknown